When you browse on this site, cookies collect data to enhance your experience and personalize the content and advertising you see.
Visit our Privacy Policy to learn more. By continuing to use the site, you agree to this use of cookies and data.
  • In Sweden
  • List of Countries
  • For 7 days
  • Water Temperature
  • Weather Map
  • Weather Widgets
  • user-avatar
    Login

    Hourly Weather Gorodenka

    Today, 11 December, Wednesday

    Time Temperature Precipitation Wind Pressure Humidity
    00:00 +1°C° 0 mm 4 mps 740 mmHg 97%
    01:00 +1°C° 0 mm 3 mps 740 mmHg 95%
    02:00 +1°C° 0 mm 2 mps 741 mmHg 90%
    03:00 +1°C° 0 mm 2 mps 740 mmHg 96%
    04:00 -1°C° 0 mm 2 mps 740 mmHg 97%
    05:00 -1°C° 0 mm 2 mps 740 mmHg 98%
    06:00 -2°C° 0 mm 2 mps 740 mmHg 99%
    07:00 +1°C° 0 mm 1 mps 740 mmHg 98%
    08:00 +1°C° 0 mm 1 mps 741 mmHg 99%
    09:00 +1°C° 0 mm 1 mps 741 mmHg 99%
    10:00 +1°C° 0 mm 0 mps 741 mmHg 95%
    11:00 +1°C° 0 mm 0 mps 740 mmHg 90%
    12:00 +3°C° 0 mm 1 mps 740 mmHg 87%
    13:00 +2°C° 0 mm 2 mps 740 mmHg 89%
    14:00 +2°C° 0 mm 2 mps 739 mmHg 92%
    15:00 +2°C° 0 mm 2 mps 739 mmHg 95%
    16:00 +1°C° 0 mm 3 mps 738 mmHg 94%
    17:00 +1°C° 0 mm 3 mps 738 mmHg 96%
    18:00 0°C° 0 mm 4 mps 738 mmHg 98%
    19:00 0°C° 0 mm 4 mps 738 mmHg 100%
    20:00 0°C° 0 mm 5 mps 738 mmHg 100%
    21:00 0°C° 0 mm 5 mps 738 mmHg 100%
    22:00 0°C° 0 mm 5 mps 737 mmHg 100%
    23:00 0°C° 0 mm 5 mps 737 mmHg 99%

    Tomorrow, 12 December, Thursday

    Time Temperature Precipitation Wind Pressure Humidity
    00:00 0°C° 0 mm 5 mps 737 mmHg 99%
    01:00 0°C° 0 mm 5 mps 736 mmHg 99%
    02:00 0°C° 0 mm 5 mps 736 mmHg 100%
    03:00 0°C° 0 mm 5 mps 736 mmHg 100%
    04:00 0°C° 0 mm 5 mps 735 mmHg 100%
    05:00 -1°C° 0 mm 6 mps 735 mmHg 100%
    06:00 -1°C° 0 mm 6 mps 734 mmHg 100%
    07:00 -1°C° 0 mm 6 mps 735 mmHg 100%
    08:00 -1°C° 0 mm 6 mps 735 mmHg 100%
    09:00 -1°C° 0 mm 6 mps 735 mmHg 100%
    10:00 -1°C° 0 mm 6 mps 734 mmHg 100%
    11:00 0°C° 0 mm 7 mps 734 mmHg 98%
    12:00 0°C° 0 mm 7 mps 734 mmHg 97%
    13:00 0°C° 0 mm 7 mps 734 mmHg 97%
    14:00 0°C° 0 mm 7 mps 733 mmHg 97%
    15:00 +1°C° 0 mm 6 mps 733 mmHg 98%
    16:00 +1°C° 0 mm 6 mps 733 mmHg 99%
    17:00 -1°C° 0 mm 6 mps 732 mmHg 100%
    18:00 -1°C° 0 mm 6 mps 732 mmHg 100%
    19:00 -1°C° 0 mm 6 mps 732 mmHg 100%
    20:00 -2°C° 0 mm 6 mps 732 mmHg 100%
    21:00 -2°C° 0 mm 6 mps 732 mmHg 100%
    22:00 -2°C° 0 mm 6 mps 731 mmHg 100%
    23:00 -2°C° 0 mm 7 mps 731 mmHg 100%

    Day after tomorrow, 13 December, Friday

    Time Temperature Precipitation Wind Pressure Humidity
    00:00 -2°C° 0 mm 6 mps 730 mmHg 100%
    01:00 -2°C° 0 mm 6 mps 730 mmHg 100%
    02:00 -2°C° 0 mm 6 mps 730 mmHg 100%
    03:00 -2°C° 0 mm 7 mps 729 mmHg 100%
    04:00 -3°C° 0 mm 7 mps 728 mmHg 100%
    05:00 -3°C° 0 mm 7 mps 728 mmHg 100%
    06:00 -3°C° 0 mm 7 mps 728 mmHg 100%
    07:00 -3°C° 0.4 mm 7 mps 728 mmHg 100%
    08:00 -3°C° 0 mm 7 mps 727 mmHg 100%
    09:00 -4°C° 0 mm 8 mps 727 mmHg 100%
    10:00 -3°C° 0 mm 7 mps 727 mmHg 100%
    11:00 -2°C° 0 mm 8 mps 726 mmHg 98%
    12:00 -2°C° 0 mm 8 mps 726 mmHg 98%
    13:00 -1°C° 0 mm 8 mps 725 mmHg 98%
    14:00 -1°C° 0 mm 8 mps 725 mmHg 98%
    15:00 -1°C° 0 mm 8 mps 724 mmHg 98%
    16:00 -2°C° 0 mm 7 mps 724 mmHg 99%
    17:00 -2°C° 0 mm 7 mps 724 mmHg 100%
    18:00 -2°C° 0 mm 7 mps 724 mmHg 100%
    19:00 -2°C° 0 mm 6 mps 725 mmHg 100%
    20:00 -2°C° 0 mm 6 mps 725 mmHg 100%
    21:00 -2°C° 0 mm 6 mps 725 mmHg 100%
    22:00 -2°C° 0 mm 6 mps 725 mmHg 100%
    23:00 -2°C° 0 mm 6 mps 725 mmHg 100%

    14 December, Saturday

    Time Temperature Precipitation Wind Pressure Humidity
    00:00 -2°C° 0 mm 6 mps 725 mmHg 100%
    01:00 -1°C° 0 mm 5 mps 726 mmHg 100%
    02:00 -1°C° 0 mm 5 mps 726 mmHg 100%
    03:00 -1°C° 0 mm 5 mps 726 mmHg 100%
    04:00 -1°C° 0 mm 5 mps 726 mmHg 100%
    05:00 -1°C° 0 mm 5 mps 726 mmHg 100%
    06:00 -1°C° 0 mm 5 mps 727 mmHg 100%
    07:00 -1°C° 0 mm 5 mps 727 mmHg 100%
    08:00 -1°C° 0 mm 4 mps 727 mmHg 100%
    09:00 -1°C° 0 mm 4 mps 728 mmHg 100%
    10:00 0°C° 0 mm 4 mps 728 mmHg 100%
    11:00 0°C° 0 mm 5 mps 728 mmHg 100%
    12:00 +1°C° 0 mm 5 mps 728 mmHg 99%
    13:00 +1°C° 0 mm 4 mps 728 mmHg 99%
    14:00 +3°C° 0 mm 4 mps 728 mmHg 98%
    15:00 +3°C° 0 mm 4 mps 728 mmHg 99%
    16:00 +3°C° 0 mm 3 mps 729 mmHg 100%
    17:00 +4°C° 0 mm 2 mps 729 mmHg 100%
    18:00 +4°C° 0 mm 2 mps 730 mmHg 100%
    19:00 +4°C° 0 mm 2 mps 730 mmHg 100%
    20:00 +3°C° 0 mm 3 mps 730 mmHg 100%
    21:00 +4°C° 0 mm 2 mps 731 mmHg 100%
    22:00 +4°C° 0 mm 1 mps 731 mmHg 100%
    23:00 +4°C° 0 mm 1 mps 731 mmHg 100%

    15 December, Sunday

    Time Temperature Precipitation Wind Pressure Humidity
    00:00 +2°C° 0 mm 2 mps 732 mmHg 100%
    01:00 +2°C° 0 mm 2 mps 732 mmHg 100%
    02:00 +1°C° 0 mm 2 mps 733 mmHg 100%

    16 December, Monday

    Time Temperature Precipitation Wind Pressure Humidity
    Show more